Weather History for Seward, AK

Change the Weather History Date:

Friday, March 15, 2013

  Actual Average Record
Temperature  
Mean Temperature 29 °F -  
Max Temperature 37 °F 38 °F 51 °F (1967)
Min Temperature 21 °F 26 °F -4 °F (1964)
Degree Days  
Heating Degree Days 36    
Moisture  
Dew Point 17 °F    
Average Humidity 69    
Maximum Humidity 82    
Minimum Humidity 44    
Precipitation  
Precipitation 0.75 in - - ()
Sea Level Pressure  
Sea Level Pressure 29.73 in    
Wind  
Wind Speed 11 mph (North)    
Max Wind Speed 15 mph    
Max Gust Speed 22 mph    
Visibility 10 miles    
Events      
Averages and records for this station are not official NWS values.
T = Trace of Precipitation, MM = Missing Value Source: NWS Daily Summary

Daily Weather History Graph

Daily Weather History Graph

Search for Another Location

Airport:

Trip Planner

Search our weather history database for the weather conditions in past years. The results will help you decide how hot, cold, wet, or windy it might be!

Date:

Astronomy

Mar. 15, 2013 Rise Set
Actual Time 8:12 AM AKDT 8:01 PM AKDT
Civil Twilight 7:31 AM AKDT 8:42 PM AKDT
Nautical Twilight 6:42 AM AKDT 9:32 PM AKDT
Astronomical Twilight 5:49 AM AKDT 10:25 PM AKDT
Moon 9:00 AM AKDT (3/15) 12:30 AM AKDT (3/15)
Length of Visible Light 13h 11m
Length of Day
11h 48m
Waxing Crescent, 16% of the Moon is Illuminated
Mar 15
Waxing Crescent
Mar 19
First Quarter
Mar 27
Full
Apr 2
Last Quarter
Apr 10
New

Hourly Weather History & Observations

Time (AKDT) Temp. Windchill Dew Point Humidity Pressure Visibility Wind Dir Wind Speed Gust Speed Precip Events Conditions
1:53 AM 21.0 °F 9.3 °F 16.0 °F 81% 29.78 in 10.0 mi North 11.5 mph - N/A   Clear
2:53 AM 21.9 °F 8.7 °F 17.1 °F 82% 29.76 in 10.0 mi North 15.0 mph - N/A   Clear
3:53 AM 21.9 °F 10.4 °F 16.0 °F 78% 29.75 in 10.0 mi North 11.5 mph - N/A   Clear
4:53 AM 21.9 °F 9.2 °F 16.0 °F 78% 29.73 in 10.0 mi North 13.8 mph - N/A   Clear
5:53 AM 21.9 °F 8.7 °F 16.0 °F 78% 29.72 in 10.0 mi North 15.0 mph - N/A   Clear
6:53 AM 24.1 °F 13.1 °F 17.1 °F 75% 29.72 in 10.0 mi North 11.5 mph 21.9 mph N/A   Mostly Cloudy
7:53 AM 23.0 °F 10.1 °F 17.1 °F 78% 29.70 in 10.0 mi North 15.0 mph - N/A   Partly Cloudy
8:53 AM 23.0 °F 10.6 °F 16.0 °F 74% 29.70 in 10.0 mi North 13.8 mph 20.7 mph N/A   Clear
9:53 AM 23.0 °F 10.6 °F 16.0 °F 74% 29.70 in 10.0 mi North 13.8 mph - N/A   Clear
10:53 AM 26.1 °F 14.5 °F 18.0 °F 71% 29.68 in 10.0 mi NNE 13.8 mph - N/A   Clear
11:53 AM 28.0 °F 17.5 °F 17.1 °F 63% 29.68 in 10.0 mi North 12.7 mph - N/A   Clear
12:53 PM 30.0 °F 20.5 °F 18.0 °F 61% 29.69 in 10.0 mi NNE 11.5 mph - 0.06 in   Clear
1:53 PM 30.9 °F 22.2 °F 19.0 °F 61% 29.69 in 10.0 mi North 10.4 mph - 0.12 in   Clear
2:53 PM 34.0 °F 31.0 °F 19.0 °F 54% 29.70 in 10.0 mi Variable 3.5 mph - 0.21 in   Clear
3:53 PM 37.0 °F 34.5 °F 17.1 °F 44% 29.70 in 10.0 mi NNE 3.5 mph - 0.33 in   Clear
4:53 PM 35.1 °F - 19.0 °F 52% 29.71 in 10.0 mi Calm Calm - 0.03 in   Clear
5:53 PM 33.1 °F - 21.9 °F 64% 29.72 in 10.0 mi Calm Calm - N/A   Clear
6:53 PM 26.1 °F 19.4 °F 17.1 °F 69% 29.73 in 10.0 mi North 5.8 mph - N/A   Clear
7:53 PM 27.0 °F 20.5 °F 17.1 °F 66% 29.74 in 10.0 mi North 5.8 mph - N/A   Clear
8:53 PM 23.0 °F 17.0 °F 16.0 °F 74% 29.75 in 10.0 mi North 4.6 mph - N/A   Clear
9:53 PM 24.1 °F 15.2 °F 15.1 °F 69% 29.78 in 10.0 mi North 8.1 mph - N/A   Clear
10:53 PM 23.0 °F 12.4 °F 14.0 °F 68% 29.79 in 10.0 mi North 10.4 mph - N/A   Clear
11:53 PM 21.9 °F 11.0 °F 12.9 °F 68% 29.82 in 10.0 mi North 10.4 mph - N/A   Clear